Regional Weather Roundup
Issued by NWS Pendleton, OR

Home | Current Version | Previous Version | Text Only | Print | Product List | Glossary On
Versions: 1 2 3 4 5 6 7 8 9 10 11 12 13 14 15 16 17 18 19 20 21 22 23 24 25 26 27 28 29 30 31 32 33 34 35 36 37 38 39 40 41 42 43 44 45 46 47 48 49 50
000
ASUS46 KPDT 290910
RWRPDT
PENDLETON REGIONAL WEATHER ROUNDUP
NATIONAL WEATHER SERVICE PENDLETON OREGON
200 AM PDT SUN MAR 29 2015

NOTE: FAIR INDICATES FEW OR NO CLOUDS BELOW 12,000 FEET WITH NO
SIGNIFICANT WEATHER AND/OR OBSTRUCTIONS TO VISIBILITY.

# INDICATES UNOFFICIAL STATION AND DATA

WAZ520-291010-
EAST SLOPES OF WASHINGTON CASCADES

CITY            SKY/WX      TMP DP  RH  WIND    PRES   REMARKS
#BUMPING DAM    N/A         39  N/A N/A CALM    N/A
#CLE ELUM HS    N/A         40  38  92  CALM    30.24S
#CLE ELUM LAKE  N/A         40  38  92  CALM    30.28F
#CLIFFDEL 2NW   N/A         38  36  92  CALM    N/A
#GLENWOOD       N/A         39  37  92  CALM    30.32S
#MANASTASH CYN  N/A         39  32  76  CALM    30.23F
#NELSON         N/A         41  39  93  CALM    30.32S
#NELSON 3SW     N/A         38  36  92  CALM    30.51F
#NILE           N/A         39  36  89  CALM    29.57S
#PEOH POINT     N/A         37  36  96  SW5     N/A
#RONALD 2NW     N/A         42  -10 10  NE2     30.14S
#SNOWDEN        N/A         40  31  70  CALM    N/A
#SOUTH BLEWITT  N/A         38  36  92  CALM    N/A
#TEANAWAY 4NE   N/A         42  39  89  CALM    N/A
#TROUT LAKE 1NE N/A         41  39  93  CALM    30.33R
$$

WAZ521-291010-
SIMCOE HIGHLANDS

CITY            SKY/WX      TMP DP  RH  WIND    PRES   REMARKS
#CENTERVILLE 4W N/A         46  39  76  CALM    30.03F
#CENTERVILLE 1SWN/A         41  36  82  CALM    30.29S
#GOLDENDALE     N/A         43  38  82  S8      N/A
#GOLDENDALE 1NE N/A         41  29  62  NW2     N/A
#GOLDENDALE 5WNWN/A         44  38  79  CALM    30.30S
#GOODNOE HILLS  N/A         48  39  71  W10     N/A
#LYLE 6NE       N/A         45  38  76  CALM    30.29S
$$

WAZ026-291010-
KITTITAS VALLEY

CITY            SKY/WX      TMP DP  RH  WIND    PRES   REMARKS
ELLENSBURG AP   CLOUDY      46  38  73  N9      30.28F
#ELLENSBURG CWU N/A         45  39  79  W1      30.24S
#ELLENSBURG 3NE N/A         44  39  82  N2      30.28F
#ELLENSBURG 1E  N/A         42  36  79  CALM    N/A
#KITTITAS 4N    N/A         42  36  79  N1      28.58F
#KITTITAS 3S    N/A         38  35  89  CALM    30.28F
#THORP 6N       N/A         43  39  86  CALM    30.31F
$$

WAZ027-291010-
YAKIMA VALLEY

CITY            SKY/WX      TMP DP  RH  WIND    PRES   REMARKS
SUNNYSIDE AP    CLOUDY      40  36  85  CALM    30.30S
YAKIMA AIRPORT  CLOUDY      46  37  71  W5      30.30S
YAKIMA-VAGABOND MOCLDY      45  38  76  E6      30.29S
#DONALD 2NE     N/A         50  32  50  CALM    29.13S
#GRANDVIEW      N/A         46  36  68  CALM    30.30F
#MABTON         N/A         44  38  79  CALM    30.29S
#MOXEE 2E       N/A         46  34  63  E3      30.23S
#NACHES 2SW     N/A         48  39  71  W7      30.29S
#TERRACE HTS    N/A         46  38  73  CALM    30.25S
#TOPPENISH      N/A         46  39  76  CALM    30.21R
#WAPATO 4NE     N/A         50  32  50  CALM    29.13S
#WEST VALLEY    N/A         45  37  73  CALM    30.27S
#W YAKIMA       N/A         48  38  68  CALM    30.29S
#WHITE SWAN 5E  N/A         45  38  76  W2      30.29S
#WILEY CITY 3W  N/A         42  29  60  CALM    30.30F
$$

WAZ028-291010-
LOWER COLUMBIA BASIN...WASHINGTON

CITY            SKY/WX      TMP DP  RH  WIND    PRES   REMARKS
PASCO           MOCLDY      45  38  76  E7      30.31S
PROSSER AWOS    N/A         46  39  76  N6      30.32F
RICHLAND AWOS   CLOUDY      45  39  79  CALM    30.30F
#BASIN CITY 5SW N/A         43  37  79  E1      30.29F
#BENTON CITY    N/A         47  37  68  CALM    30.20F
#CONNELL 5N     N/A         44  38  79  SW1     30.29S
#CONNELL 5NW    N/A         43  38  82  S1      30.25F
#ELTOPIA        N/A         44  39  82  CALM    30.25F
#ELTOPIA 6NW    N/A         45  39  79  CALM    29.25F
#KAHLOTUS       N/A         45  37  73  W2      30.29S
#KENNEWICK 3S   N/A         49  38  66  S2      30.30S
#PASCO-BROADMOORN/A         47  38  71  CALM    30.21F
#PATERSON       N/A         46  38  73  CALM    30.29F
#PROSSER DOT    N/A         48  38  68  E7      N/A
#PROSSER        N/A         48  36  63  S7      30.28F
#SAGEMOOR 2W    N/A         47  38  71  CALM    30.14F
#TOUCHET 2S     N/A         42  38  86  SE1     30.29F
#WEST PASCO     N/A         48  36  63  CALM    30.34F
$$

WAZ029-291010-
FOOTHILLS OF THE BLUES...WASHINGTON

CITY            SKY/WX      TMP DP  RH  WIND    PRES   REMARKS
WALLA WALLA AP  CLOUDY      48  37  65  E9      30.31S
#DAYTON SCHOOL  N/A         42  31  65  E1      30.31S
#DELANEY DOT    N/A         48  36  63  E2      N/A
#LOWDEN 2SE     N/A         42  39  89  E1      30.28S
#PLEASANT VIEW 1N/A         44  37  76  SW6     30.35S
#PRESCOTT       N/A         38  36  92  CALM    30.30S
#SUDBURY        N/A         40  N/A N/A CALM    N/A
#WHITMAN COLLEGEN/A         49  38  66  E3      30.35F
#WAITSBURG 5S   N/A         45  37  73  CALM    30.41S
#WAITSBURG 8N   N/A         38  24  57  N3      30.18S
#WALLA WALLA 5E N/A         44  39  82  N2      N/A
#WALLA WALLA U  N/A         47  39  74  CALM    30.31S
#WHITMAN MISSIONN/A         44  39  82  CALM    30.33S
$$

WAZ030-291010-
BLUE MOUNTAINS...WASHINGTON

CITY            SKY/WX      TMP DP  RH  WIND    PRES   REMARKS
#DIXIE 5SE      N/A         45  31  58  CALM    30.24S
$$

ORZ009-041-WAZ024-291010-
COLUMBIA RIVER GORGE

CITY            SKY/WX      TMP DP  RH  WIND    PRES   REMARKS
HOOD RIVER AP   PTCLDY      46  43  89  CALM    30.33S
THE DALLES AP   CLOUDY      50  42  74  CALM    30.32S
#ARLINGTON AIRPON/A         48  39  71  SW2     29.99R
#CELILO DOT     N/A         50  36  58  CALM    N/A
#LYLE           N/A         50  44  80  N3      30.34S
#MARYHILL       N/A         49  38  66  CALM    N/A
#MOSIER 1S      N/A         46  38  73  CALM    30.29S
#MURDOCK        N/A         51  46  83  NW5     30.34S
#RUFUS DOT      N/A         51  38  61  CALM    N/A

$$

ORZ510-291010-
NORTH CENTRAL OREGON

CITY            SKY/WX      TMP DP  RH  WIND    PRES   REMARKS
#CHENOWITH 1W   N/A         46  39  76  NW8     N/A
#COW CYN RST AREN/A         45  33  63  E1      N/A
#DUFUR 9E       N/A         45  38  76  CALM    30.36F
#GRASS VALLEY 1SN/A         42  36  79  CALM    30.33F
#KENT DOT       N/A         43  32  65  SE3     N/A
#MAUPIN SCHOOL  N/A         47  39  74  CALM    30.34R
#MORO SCHOOL    N/A         41  39  93  S1      30.31S
#SHANIKO 5WSW   N/A         44  28  53  SE3     N/A
#SHANIKO 4NW    N/A         44  32  62  CALM    30.30S
#TYGH VALLEY 2NEN/A         45  39  79  CALM    30.32R
#WAPANITIA AIRPON/A         44  39  82  CALM    30.33R
#WASCO DOT      N/A         41  38  89  CALM    N/A
#WASCO 5NE      N/A         43  38  82  CALM    30.32S
$$

ORZ511-291010-
CENTRAL OREGON

CITY            SKY/WX      TMP DP  RH  WIND    PRES   REMARKS
BEND AIRPORT    MOCLDY      36  28  72  CALM    30.31S
MADRAS AIRPORT  MOCLDY      39  34  82  SE5     30.34R
PRINEVILLE AP   MOCLDY      30  27  88  CALM    30.32S
REDMOND AIRPORT MOCLDY      34  26  72  S7      30.31S
#BEND 6E        N/A         36  24  61  CALM    30.28F
#BEND 1SW       N/A         34  29  82  NE1     N/A
#BEND-AWBREY    N/A         40  31  70  S3      30.32S
#BEND-KIM LN    N/A         40  31  70  SW6     30.28S
#CULVER         N/A         39  33  79  CALM    30.28S
#LAKE BILLY CHINN/A         42  25  51  CALM    30.37R
#MADRAS         N/A         39  33  79  SE3     N/A
#POWELL BUTTE   N/A         38  27  64  S1      29.91S
#PRINEVILLE 3N  N/A         35  30  82  E2      30.29S
#WARM SPRINGS   N/A         44  37  76  CALM    30.29R

$$


ORZ509-291010-
EAST SLOPES OF OREGON CASCADES

CITY            SKY/WX      TMP DP  RH  WIND    PRES   REMARKS
#BLUE BOX PASS  N/A         40  -10 11  CALM    N/A
#CAMP SHERMAN   N/A         32  29  89  CALM    30.37F
#LA PINE DOT    N/A         29  24  81  CALM    N/A
#LA PINE 4NW    N/A         27  23  85  CALM    30.40R
#LAVA BUTTE DOT N/A         34  27  75  CALM    N/A
#SISTERS AIRPOR N/A         32  32  100 CALM    30.17S
#SISTERS ODOT   N/A         32  N/A N/A CALM    N/A
#SISTERS 3N     N/A         32  23  69  CALM    30.31S
#SUNRIVER       N/A         31  28  88  CALM    30.24R
#SUTTLE LK DOT  N/A         31  31  100 E2      N/A
#TUMALO 3W      N/A         43  32  65  W1      30.21R
#WANOGA BUTTE D N/A         39  21  48  CALM    N/A

$$

ORZ044-291010-
LOWER COLUMBIA BASIN...OREGON

CITY            SKY/WX      TMP DP  RH  WIND    PRES   REMARKS
HERMISTON       MOCLDY      42  36  79  SE7     30.31S
#BOARDMAN SCHOOLN/A         47  39  74  CALM    30.32S
#BOARDMAN 8SW   N/A         47  40  76  SW5     30.30S
#ECHO 8SW       N/A         45  35  68  SW3     30.28S
#IONE SCHOOL    N/A         46  30  53  CALM    30.30S
#IRRIGON 4NW    N/A         45  39  79  E6      N/A
#UMATILLA       N/A         58  36  44  SW1     30.23S
$$

ORZ507-291010-
NORTHERN FOOTHILLS OF THE BLUES

CITY            SKY/WX      TMP DP  RH  WIND    PRES   REMARKS
PENDLETON AIRPT MOCLDY      41  36  82  SE10    30.30F
#ADAMS 3WNW     N/A         36  32  85  CALM    30.32F
#ATHENA         N/A         42  37  82  CALM    30.33F
#CAYUSE         N/A         43  37  79  E7      30.31S
#HELIX SCHOOL   N/A         36  33  89  CALM    30.32S
#HELIX 3N       N/A         43  37  79  S2      30.26S
#HOLDMAN 5SE    N/A         42  38  86  CALM    30.29F
#HOLDMAN 6E     N/A         42  36  79  CALM    30.11F
#M-F FERNDALE   N/A         47  37  68  CALM    30.29S
#M-F GROVE ELEM N/A         46  35  65  CALM    30.29S
#M-FREEWATER 5SEN/A         46  37  71  E6      30.29F
#PENDLETON DNTN N/A         41  30  65  CALM    30.31S
#PDT AQUATIC CTRN/A         42  29  60  E2      30.31S
#PENDLETON 5NE  N/A         37  34  89  CALM    30.27S
#PDT SUNRIDGE   N/A         38  34  85  E2      30.33S
#PENDLETON 7NW  N/A         41  36  82  SE3     N/A
#PILOT ROCK     N/A         40  33  76  CALM    30.31F
#TUTUILLA       N/A         35  32  89  CALM    30.31F
#UMAPINE 2E     N/A         46  39  76  CALM    30.28F
#WESTON SCHOOL  N/A         45  33  63  CALM    30.28F

$$

ORZ508-291010-
SOUTHERN FOOTHILLS OF THE BLUES

CITY            SKY/WX      TMP DP  RH  WIND    PRES   REMARKS
LEXINGTON       MOCLDY      45  37  73  E8      30.32F
#AJAX           N/A         46  30  53  CALM    30.22S
#CONDON SCHOOL  N/A         42  37  82  CALM    30.24S
#CONDON 5W      N/A         43  32  65  NW1     30.26F
#FOSSIL SCHOOL  N/A         40  36  85  CALM    30.26F
#HEPPNER EOC    N/A         42  36  79  SE7     30.27S
#HEPPNER 4NE    N/A         42  34  73  CALM    30.31S
#LEXINGTON 2SE  N/A         45  38  76  SE6     30.28R
#MIKKALO        N/A         45  35  68  W2      30.29S
#OLEX 4N        N/A         48  38  68  SW3     30.30R
#RUGGS 5NE      N/A         38  34  85  CALM    30.46S
#RUGGS 2SW      N/A         40  34  79  CALM    30.33F

$$

ORZ502-503-291010-
BLUE MOUNTAINS

CITY            SKY/WX      TMP DP  RH  WIND    PRES   REMARKS
MEACHAM         MOCLDY      30  28  92  CALM    30.30F
#BATTLE MTN DOT N/A         36  35  96  S6      N/A
#HEPPNER 15SE   N/A         36  31  82  CALM    30.20F
#LADD CYN SMT   N/A         32  28  85  CALM    N/A
#LADD CREEK ODOTN/A         35  31  85  S2      N/A
#LONG CREEK HS  N/A         39  35  85  CALM    30.27S
#N POWDER DOT   N/A         31  30  96  NE2     N/A
#PIKES PEAK     N/A         44  33  65  SW5     27.99S
#TOLLGATE       N/A         33  30  89  CALM    30.22S
#TROY SCHOOL    N/A         37  33  85  CALM    30.22R
#UKIAH          N/A         31  29  92  CALM    30.38S
#WESTON 4E      N/A         41  33  73  SE2     30.28R
$$

ORZ505-291010-
JOHN DAY BASIN

CITY            SKY/WX      TMP DP  RH  WIND    PRES   REMARKS
JOHN DAY        MOCLDY      40  30  67  SE8     30.32S
#JOHN DAY KJDY  N/A         39  27  62  CALM    30.41R
#DAYVILLE SCHOOLN/A         42  34  73  CALM    30.28S
#MITCHELL       N/A         39  34  82  CALM    30.42R
#MONUMENT HS    N/A         40  33  76  CALM    30.32R
#MT. VERNON 5SE N/A         39  31  73  CALM    30.26F
#WINLOCK        N/A         40  31  70  N2      30.36F
$$

ORZ506-291010-
OCHOCO AND JOHN DAY HIGHLANDS

CITY            SKY/WX      TMP DP  RH  WIND    PRES   REMARKS
#BUCK CREEK DOT N/A         40  40  100 E7      N/A
#HORSE RIDGE DO N/A         25  18  74  CALM    N/A
#KEYES SMT DOT  N/A         39  27  62  CALM    N/A
#PAULINA SCHOOL N/A         69  35  28  CALM    30.25S
#PINE MTN OBS   N/A         41  19  41  S8      N/A
#PRAIRIE CITY   N/A         32  26  78  CALM    30.50R
#SENECA         N/A         30  N/A N/A CALM    N/A
#SENECA 9NW     N/A         28  26  92  CALM    30.33S
$$

ORZ049-291010-
GRANDE RONDE VALLEY

CITY            SKY/WX      TMP DP  RH  WIND    PRES   REMARKS
LA GRANDE       MOCLDY      37  27  67  CALM    30.32S
#COVE           N/A         37  34  89  CALM    30.32R
#COVE SCHOOL    N/A         36  32  85  CALM    30.29R
#ELGIN 3N       N/A         32  28  85  CALM    30.30R
#ELGIN 1E       N/A         35  30  82  CALM    N/A
#IMBLER SCHOOL  N/A         36  32  85  N6      30.27S
#ISLAND CITY 4N N/A         47  45  93  CALM    30.32S
#LADD CYN DOT   N/A         39  31  73  SE7     N/A
#UNION 1S       N/A         40  32  73  CALM    30.25R
$$

ORZ050-291010-
WALLOWA COUNTY

CITY            SKY/WX      TMP DP  RH  WIND    PRES   REMARKS
#ENTERPRISE HS  N/A         30  27  88  CALM    30.31S
#IMNAHA 10S     N/A         38  30  73  SW5     30.31S
#JOSEPH 3N      N/A         28  23  81  CALM    30.30F
#JOSEPH 3W      N/A         33  25  72  SW2     30.12F
#LOSTINE        N/A         32  28  85  CALM    30.15S
#MT HOWARD 8000 N/A         34  12  40  CALM    30.28F
#PROMISE 1S     N/A         33  30  89  CALM    30.47S
#SHEEP RDG 7000 N/A         35   5  28  CALM    30.40S
#WALLOWA SCHOOL N/A         30  28  92  CALM    31.32R



$$



USA.gov is the U.S. government's official web portal to all federal, state and local government web resources and services.